HB12PM LSZB-LFMD

Flight info

Callsign HB12PM
Flight time N/A
Altitude 30000
Route AMRID Z60 FRIBU T544 LSE A6 ROMAM Z16 MTL A3 AMFOU
Aircraft PC12/L-SDFGRWY/S

Departure

Time 2026-04-23 20:53
Airport Bern Airport (LSZB)

Arrival

Time N/A
Airport Cannes Mandelieu Airport (LFMD)
Time Latitude Longitude Altitude Speed Heading
2026-04-23 20:41 46.91236 7.50173 1680 ft 0 kts 90°
2026-04-23 20:48 46.91237 7.50185 1680 ft 1 kts 76°
2026-04-23 20:48 46.91225 7.50172 1680 ft 9 kts 239°
2026-04-23 20:48 46.91153 7.50185 1685 ft 12 kts 140°
2026-04-23 20:49 46.91062 7.50295 1693 ft 17 kts 140°
2026-04-23 20:49 46.90966 7.50408 1696 ft 9 kts 150°
2026-04-23 20:49 46.90904 7.50336 1694 ft 11 kts 309°
2026-04-23 20:49 46.90911 7.50328 1688 ft 0 kts 320°
2026-04-23 20:52 46.90911 7.50329 1688 ft 0 kts 320°
2026-04-23 20:52 46.90912 7.50328 1688 ft 0 kts 319°
2026-04-23 20:52 46.90917 7.50321 1688 ft 13 kts 320°
2026-04-23 20:53 46.91186 7.49994 1687 ft 84 kts 321°
2026-04-23 20:53 46.91739 7.49301 1862 ft 115 kts 317°
2026-04-23 20:53 46.92347 7.48458 2344 ft 125 kts 314°
2026-04-23 20:53 46.92968 7.47505 2904 ft 136 kts 312°
2026-04-23 20:54 46.93795 7.46434 2905 ft 180 kts 324°
2026-04-23 20:54 46.94872 7.45336 2956 ft 200 kts 326°
2026-04-23 20:54 46.96147 7.44526 2903 ft 204 kts 356°
2026-04-23 20:54 46.97519 7.44560 3375 ft 193 kts
2026-04-23 20:55 46.98845 7.44598 3800 ft 189 kts
2026-04-23 20:55 47.00160 7.44498 4204 ft 192 kts 347°
2026-04-23 20:55 47.01280 7.43622 5060 ft 171 kts 332°
2026-04-23 20:55 47.02218 7.42743 6024 ft 153 kts 332°
2026-04-23 20:56 47.03129 7.41898 6692 ft 157 kts 332°
2026-04-23 20:56 47.04056 7.41050 7340 ft 157 kts 332°
2026-04-23 20:56 47.04940 7.40092 7950 ft 164 kts 309°
2026-04-23 20:56 47.05072 7.38478 8547 ft 171 kts 246°
2026-04-23 20:57 47.04280 7.37226 9225 ft 168 kts 209°
2026-04-23 20:57 47.03180 7.36784 9913 ft 164 kts 183°
2026-04-23 20:57 47.02055 7.36451 10566 ft 166 kts 192°
2026-04-23 20:57 47.00942 7.35978 11199 ft 167 kts 194°
2026-04-23 20:58 46.99826 7.35473 11834 ft 168 kts 194°
2026-04-23 20:58 46.98710 7.34964 12472 ft 169 kts 194°
2026-04-23 20:58 46.97585 7.34452 13116 ft 169 kts 194°
2026-04-23 20:58 46.96461 7.33942 13765 ft 169 kts 194°
2026-04-23 20:59 46.95335 7.33429 14370 ft 170 kts 194°
2026-04-23 20:59 46.94208 7.32917 14942 ft 170 kts 194°
2026-04-23 20:59 46.93072 7.32434 15516 ft 169 kts 189°
2026-04-23 20:59 46.91943 7.32005 16095 ft 170 kts 191°
2026-04-23 21:00 46.90803 7.31546 16687 ft 170 kts 191°
2026-04-23 21:00 46.89663 7.31093 17274 ft 169 kts 190°
2026-04-23 21:00 46.88525 7.30656 17876 ft 169 kts 189°
2026-04-23 21:00 46.87387 7.30213 18477 ft 169 kts 189°
2026-04-23 21:01 46.86249 7.29776 19009 ft 169 kts 189°
2026-04-23 21:01 46.85112 7.29332 19520 ft 167 kts 188°
2026-04-23 21:01 46.84020 7.29060 19290 ft 164 kts 163°
2026-04-23 21:01 46.82923 7.28509 19032 ft 176 kts 224°
2026-04-23 21:02 46.82206 7.27147 19005 ft 163 kts 232°
2026-04-23 21:02 46.81739 7.25608 18663 ft 175 kts 264°
2026-04-23 21:02 46.81783 7.23820 18265 ft 181 kts 288°
2026-04-23 21:02 46.82166 7.22095 18103 ft 176 kts 296°
2026-04-23 21:03 46.82678 7.20558 18058 ft 162 kts 307°
2026-04-23 21:03 46.83368 7.19124 17363 ft 188 kts 316°
2026-04-23 21:03 46.84337 7.17897 17139 ft 180 kts 334°
2026-04-23 21:03 46.85467 7.16959 16455 ft 203 kts 321°
2026-04-23 21:04 46.86416 7.15357 16104 ft 204 kts 310°
2026-04-23 21:04 46.87325 7.13890 15803 ft 201 kts 318°
2026-04-23 21:04 46.88258 7.12449 15892 ft 170 kts 318°
2026-04-23 21:04 46.88928 7.11204 15719 ft 171 kts 307°
2026-04-23 21:05 46.89710 7.09621 15121 ft 194 kts 316°
2026-04-23 21:05 46.90596 7.08348 15319 ft 163 kts 323°
2026-04-23 21:05 46.91405 7.07149 14970 ft 174 kts 317°
2026-04-23 21:05 46.92254 7.05904 14768 ft 171 kts 322°
2026-04-23 21:06 46.93188 7.04649 14164 ft 193 kts 322°
2026-04-23 21:06 46.94181 7.03223 13656 ft 204 kts 318°
2026-04-23 21:06 46.95187 7.01785 13303 ft 197 kts 333°
2026-04-23 21:06 46.96402 7.01496 13138 ft 170 kts 18°
2026-04-23 21:07 46.97341 7.02387 12719 ft 160 kts 47°
2026-04-23 21:07 46.97871 7.03803 12259 ft 163 kts 82°
2026-04-23 21:07 46.97545 7.05311 12050 ft 156 kts 126°
2026-04-23 21:07 46.96556 7.05882 11609 ft 170 kts 190°
2026-04-23 21:08 46.95373 7.05939 10760 ft 185 kts 142°
2026-04-23 21:08 46.94795 7.07554 10270 ft 177 kts 88°
2026-04-23 21:08 46.95362 7.09037 9569 ft 182 kts 30°
2026-04-23 21:08 46.96633 7.08791 8560 ft 216 kts 313°
2026-04-23 21:09 46.96584 7.06724 7768 ft 225 kts 229°
2026-04-23 21:09 46.95283 7.05474 6741 ft 235 kts 201°
2026-04-23 21:09 46.93727 7.04682 5777 ft 242 kts 198°
2026-04-23 21:09 46.92313 7.03487 5221 ft 231 kts 216°
2026-04-23 21:10 46.91124 7.01925 4410 ft 231 kts 220°
2026-04-23 21:10 46.89932 7.00353 3662 ft 229 kts 221°
2026-04-23 21:10 46.88864 6.98822 3357 ft 206 kts 225°
2026-04-23 21:10 46.87952 6.97408 2794 ft 162 kts 225°
2026-04-23 21:11 46.87316 6.96404 2453 ft 109 kts 227°
2026-04-23 21:11 46.86879 6.95605 2251 ft 99 kts 227°
2026-04-23 21:11 46.86421 6.94854 2039 ft 99 kts 226°
2026-04-23 21:11 46.85969 6.94130 1875 ft 94 kts 226°
2026-04-23 21:12 46.85514 6.93454 1744 ft 92 kts 224°
2026-04-23 21:12 46.85089 6.92745 1516 ft 91 kts 224°
2026-04-23 21:12 46.84704 6.92115 1463 ft 72 kts 226°
2026-04-23 21:12 46.84482 6.91760 1466 ft 39 kts 226°
2026-04-23 21:13 46.84384 6.91662 1464 ft 0 kts 122°
2026-04-23 21:13 46.84366 6.91753 1466 ft 16 kts 84°
2026-04-23 21:13 46.84402 6.91837 1465 ft 17 kts 43°